{"data":{"norad_id":61214,"epoch":"2026-05-24T18:27:55.701216Z","epoch_age_seconds":98987,"freshness":"FRESH","line1":"1 61214U 24171Q   26144.76939469  .00000397  00000+0  22883-4 0  9994","line2":"2 61214  53.1617 328.5632 0000946 106.8112 253.2995 15.34385678 94026","mean_motion":15.34385678,"eccentricity":9.46e-5,"inclination_deg":53.1617,"raan_deg":328.5632,"arg_perigee_deg":106.8112,"mean_anomaly_deg":253.2995,"bstar":2.2883e-5,"rev_number":9402,"period_min":93.848634059005,"perigee_km":462.09866102675,"apogee_km":463.39295605413,"semimajor_km":6840.8828085404,"source":"CELESTRAK","updated_at":"2026-05-25T13:38:19.361707Z"}}